logo
App data

Beeftacular

Beeftacular is a fast-paced platformer where you have to clean levels from rotten meat chunks as fast as possible. Jump your way through the level and use your attacks to hack all of them into pieces. Compare your speedruns with your friends and the world.
Store | Hub | SteamDB | Site
Developer: Retrific Publisher: Retrific
Genre: Action, Casual, Indie, Racing, Sports
Languages: English, German
Tags: Casual (32), Action (23), Indie (22), Sports (18), Racing (15), Platformer (15), Level Editor (13), Fast-Paced (12), Singleplayer (11), Difficult (11), Puzzle (10), Destruction (8)
Category: Single-player, Steam Achievements, Full controller support, Steam Trading Cards, Steam Workshop, Steam Cloud, Stats, Steam Leaderboards, Includes level editor
Release date: Aug 26, 2016
Price: $2.99
Score rank: 45% Userscore: 77% Old userscore: 78%
Owners: 0 .. 20,000
Followers: 242
Playtime total: 02:09 (average) 02:14 (median)

Steam Spy is still in beta, so expect major bugs.

Owners data:

Access restricted.

This feature is only available to users with special access rights. Sorry.

If you want to proceed, you need to register or log in first and then back Steam Spy on Patreon. Look for Indie or Pro pledge.

Don't forget to use the same email as on Steam Spy!

Audience in 2 weeks:

Access restricted.

This feature is only available to users with special access rights. Sorry.

If you want to proceed, you need to register or log in first and then back Steam Spy on Patreon. Look for Indie or Pro pledge.

Don't forget to use the same email as on Steam Spy!

Peak daily concurrent players:

CCU data courtesy of SteamDB. Used with permission.

Hourly concurrent players:

Daily Twitch stats:

Hourly Twitch stats:

YouTube:

The views data is based on top 50 videos uploaded last week. Actual number of views might be more than the number shown.

The displayed number of videos uploaded yesterday is limited to 50, so if there were more videos uploaded, the number will still show 50.

If the game has commonly used word as its name (like "FEAR" or "Volume") its number of Youtube views might be wrong.

Games similar to this one:

# Game Release date
Price
Score rank
(Userscore / Metascore)
Owners
Players
Playtime (Median)
1 Night Blights Apr 15, 2016 $4.99100% (100%)0 .. 20,0000%00:00 (00:00)
2 Carrie's Order Up! Sep 12, 2016 $2.9999% (98%)0 .. 20,0000%00:00 (00:00)
3 Luxor Evolved Mar 1, 2012 $9.9997% (97%)50,000 .. 100,0000%00:00 (00:00)
4 Hustle Cat Mar 16, 2016 $19.9995% (96%)20,000 .. 50,0000%00:00 (00:00)
5 A Good Snowman Is Hard To Build Feb 25, 2015 $9.9993% (95%)20,000 .. 50,0007.69%02:09 (00:43)
6 Beat Da Beat Mar 10, 2016 $1.9993% (95%)0 .. 20,0007.14%00:20 (00:06)
7 Chip's Challenge 2 May 28, 2015 $4.9990% (94%)20,000 .. 50,0003.57%03:55 (01:18)
8 Tennis in the Face Nov 18, 2015 $4.9987% (93%)0 .. 20,0000%00:00 (00:00)
9 Swapperoo Dec 18, 2015 $4.99N/A (N/A)0 .. 20,0000%00:00 (00:00)
10 [the Sequence] Mar 30, 2016 $1.9987% (93%)0 .. 20,0000%00:00 (00:00)
11 12 Labours of Hercules Mar 23, 2015 $2.9987% (93%)100,000 .. 200,0000.23%02:57 (00:59)
12 Girls Like Robots Feb 14, 2014 $6.9987% (93%)100,000 .. 200,0000.38%00:01 (00:00)
13 Earthtongue Apr 27, 2015 $2.4984% (92%)20,000 .. 50,0000%00:00 (00:00)
14 SquareCells Dec 7, 2015 $2.9984% (92%)20,000 .. 50,0000%00:00 (00:00)
15 Grapple Mar 9, 2015 $6.9980% (91%)20,000 .. 50,0000%00:00 (00:00)
16 The Jackbox Party Pack Nov 26, 2014 $24.9980% (91%)200,000 .. 500,0004.72%00:49 (01:07)
17 Tribloos 2 Jan 30, 2014 $4.9980% (91%)100,000 .. 200,0000%00:00 (00:00)
18 Griptape Backbone May 5, 2017 Free80% (91%)0 .. 20,0000%00:00 (00:00)
19 Frog Climbers Oct 6, 2016 $6.9977% (90%)20,000 .. 50,0000%00:00 (00:00)
20 On Rusty Trails Jun 13, 2016 $12.9977% (90%/77%)50,000 .. 100,0000%00:00 (00:00)
21 Think To Die 3 Mar 27, 2017 $4.99N/A (N/A)0 .. 20,0000%00:00 (00:00)
22 Recursion Deluxe Feb 12, 2016 $4.9974% (89%)0 .. 20,0000%00:00 (00:00)
23 The Reject Demon: Toko Chapter 0 — Prelude May 8, 2015 $4.9974% (89%)0 .. 20,0000%00:00 (00:00)
24 12 Labours of Hercules IV: Mother Nature (Platinum Edition) Dec 25, 2015 $2.9974% (89%)20,000 .. 50,0000%00:00 (00:00)
25 Koala Kids Jun 22, 2015 $1.9974% (89%)20,000 .. 50,0000%00:00 (00:00)
26 12 Labours of Hercules V: Kids of Hellas (Platinum Edition) Jun 17, 2016 $2.9974% (89%)20,000 .. 50,0001.06%01:40 (00:33)
27 This Starry Midnight We Make Jun 1, 2015 $9.99N/A (N/A)0 .. 20,0000%00:00 (00:00)
28 Clock Simulator Jul 20, 2016 $0.9974% (89%)20,000 .. 50,0001.82%01:31 (00:30)
29 Forgotten, Not Lost - A Kinetic Novel Apr 1, 2016 $1.9974% (89%)50,000 .. 100,0000.33%02:34 (00:51)
30 Without Within 2 Nov 9, 2015 $4.9971% (88%)0 .. 20,0000%00:00 (00:00)
31 Bob Was Hungry Aug 19, 2015 $9.9971% (88%)20,000 .. 50,0002.06%00:34 (00:22)
32 Asphyxia Aug 4, 2015 $5.9969% (87%)20,000 .. 50,0000%00:00 (00:00)
33 Vampires: Guide Them to Safety! Oct 22, 2014 $4.99N/A (N/A)0 .. 20,0000%00:00 (00:00)
34 Loot Hound Nov 17, 2015 $2.9969% (87%)0 .. 20,0000%00:00 (00:00)
35 Oozi: Earth Adventure Dec 5, 2013 $4.9969% (87%/66%)50,000 .. 100,0000%00:00 (00:00)
36 Army of Pixels Oct 29, 2015 $4.99N/A (N/A)0 .. 20,0000%00:00 (00:00)
37 Thrillville: Off the Rails Jul 8, 2009 $9.9969% (87%/70%)20,000 .. 50,0000%00:00 (00:00)
38 Darkarta: A Broken Heart's Quest Collector's Edition Mar 8, 2017 $9.9966% (86%)20,000 .. 50,0000%00:00 (00:00)
39 In Between Aug 21, 2015 $11.9966% (86%/68%)50,000 .. 100,0000.44%02:02 (00:40)
40 Cursed Sight Aug 3, 2015 $5.9966% (86%)0 .. 20,0000%00:00 (00:00)
41 Sophie's Curse Mar 16, 2016 $4.9966% (86%)50,000 .. 100,0000%00:00 (00:00)
42 Anode Oct 5, 2015 $3.9966% (86%)20,000 .. 50,0000%00:00 (00:00)
43 Alpha Runner Sep 2, 2015 $0.9963% (85%)100,000 .. 200,0001.14%04:18 (02:54)
44 Psycho Starship Rampage Sep 28, 2015 $9.9963% (85%)0 .. 20,0000%00:00 (00:00)
45 Magma Tsunami Jun 1, 2016 $0.9963% (85%)100,000 .. 200,0000.21%06:21 (02:07)
46 Sentinel 4: Dark Star Aug 13, 2015 $6.99N/A (N/A)0 .. 20,0000%00:00 (00:00)
47 Job the Leprechaun Jul 31, 2015 $2.9961% (84%)20,000 .. 50,0000%00:00 (00:00)
48 BAD END Nov 25, 2015 $1.9961% (84%)0 .. 20,0000%00:00 (00:00)
49 Dead Man's Draw Feb 6, 2014 $6.9961% (84%)20,000 .. 50,0000%00:00 (00:00)
50 RePete Mar 9, 2016 $1.99N/A (N/A)0 .. 20,0000%00:00 (00:00)
51 Governor of Poker 2 - Premium Edition Oct 11, 2010 $14.9958% (83%)20,000 .. 50,0000%00:00 (00:00)
52 Steam and Metal Feb 9, 2015 $4.9958% (83%)0 .. 20,0000%00:00 (00:00)
53 Gridworld Dec 24, 2015 $0.9958% (83%)0 .. 20,0000%00:00 (00:00)
54 Cyto Jul 10, 2014 $3.9958% (83%)20,000 .. 50,0000%00:00 (00:00)
55 Cute Things Dying Violently Sep 2, 2015 $2.9958% (83%)0 .. 20,0000%00:00 (00:00)
56 Collisions Jul 28, 2015 $3.9956% (82%)50,000 .. 100,0000%00:00 (00:00)
57 Stay Alight Mar 2, 2015 $3.9954% (81%)20,000 .. 50,0000%00:00 (00:00)
58 Dungeon Painter Studio Feb 26, 2017 $14.9951% (80%)20,000 .. 50,00013.16%06:35 (05:09)
59 Space Drifters 2D Mar 28, 2016 $0.99N/A (N/A)20,000 .. 50,0000%00:00 (00:00)
60 Egg Returns Home May 5, 2015 $0.9951% (80%)20,000 .. 50,0000%00:00 (00:00)
61 The Last NightMary - A Lenda do Cabeça de Cuia Nov 2, 2015 $0.5149% (79%)50,000 .. 100,0000%00:00 (00:00)
62 GamersGoMakers Aug 8, 2014 $9.9949% (79%)0 .. 20,0000%00:00 (00:00)
63 Terraform May 8, 2015 $2.99N/A (N/A)0 .. 20,0000%00:00 (00:00)
64 Archimedes Oct 6, 2016 $2.9949% (79%)100,000 .. 200,0000%00:00 (00:00)
65 Optika Aug 26, 2016 $4.9949% (79%)20,000 .. 50,0000%00:00 (00:00)
66 Star Sky - ブルームーン Oct 23, 2015 $3.9949% (79%)0 .. 20,0000%00:00 (00:00)
67 Particulars Nov 19, 2014 $5.9947% (78%/74%)20,000 .. 50,0000%00:00 (00:00)
68 The Survey Oct 27, 2016 $4.9947% (78%)0 .. 20,0000%00:00 (00:00)
69 Farm for your Life Jun 16, 2014 $9.9947% (78%)50,000 .. 100,0000%00:00 (00:00)
70 Air Missions: HIND Jun 14, 2017 $16.9947% (78%)0 .. 20,0000%00:00 (00:00)
71 Neon Prism Nov 18, 2016 $4.9945% (77%)50,000 .. 100,0002.14%03:05 (03:52)
72 Paranormal State: Poison Spring Apr 9, 2014 $9.9945% (77%)50,000 .. 100,0000%00:00 (00:00)
73 SinaRun Oct 26, 2015 $2.9945% (77%)20,000 .. 50,0000%00:00 (00:00)
74 Where are my Internets? Dec 16, 2016 $2.99N/A (N/A)20,000 .. 50,0000%00:00 (00:00)
75 ConflictCraft Dec 8, 2016 $2.99N/A (N/A)20,000 .. 50,0000%00:00 (00:00)
76 hackmud Sep 22, 2016 $19.9943% (76%)20,000 .. 50,0004.17%53:11 (17:43)
77 Rescue Team 5 Nov 18, 2015 $3.9943% (76%)20,000 .. 50,0001.18%04:30 (01:30)
78 Pixel Puzzles 2: Birds Feb 20, 2015 $9.9943% (76%)200,000 .. 500,0000.63%02:41 (02:09)
79 Fate Tectonics Sep 9, 2015 $9.9941% (75%)0 .. 20,0000%00:00 (00:00)
80 Kombine Oct 14, 2016 $0.9941% (75%)20,000 .. 50,0000%00:00 (00:00)
81 The Deletion Jul 30, 2015 $1.9941% (75%)20,000 .. 50,0000%00:00 (00:00)
82 MOAI 2: Path to Another World Jul 16, 2015 $7.99N/A (N/A)0 .. 20,0000%00:00 (00:00)
83 Idle Evolution Apr 3, 2017 $4.9938% (73%)0 .. 20,0000%00:00 (00:00)
84 GO AWAY, THERE'S KUMIS OVER THERE! Oct 28, 2016 $0.9936% (72%)50,000 .. 100,0000.39%00:01 (00:00)
85 Axel & Pixel Oct 6, 2010 $4.99N/A (N/A)20,000 .. 50,0000%00:00 (00:00)
86 Caravanserail Mar 10, 2016 $2.99N/A (N/A)0 .. 20,0000%00:00 (00:00)
87 Turbo Pug 3D Sep 20, 2016 $1.9935% (71%)200,000 .. 500,0000.09%00:38 (00:12)
88 Laserlife Sep 22, 2015 $1.4935% (71%)0 .. 20,0000%00:00 (00:00)
89 Western FPS Mar 13, 2017 $0.9933% (70%)200,000 .. 500,0000.2%00:05 (00:01)
90 Zipple World Jan 19, 2016 $4.99N/A (N/A)0 .. 20,0000%00:00 (00:00)
91 Wanda - A Beautiful Apocalypse Jun 3, 2016 $1.9931% (69%)100,000 .. 200,0000%00:00 (00:00)
92 Love in the Glen Jun 8, 2016 $5.99N/A (N/A)20,000 .. 50,0000%00:00 (00:00)
93 Pester Aug 21, 2015 $0.9930% (68%)100,000 .. 200,0000%00:00 (00:00)
94 Sinister City Oct 20, 2014 $0.9930% (68%)100,000 .. 200,0000.2%03:16 (01:05)
95 Mind Games Mar 4, 2016 $2.9928% (67%)0 .. 20,0002.08%00:01 (00:00)
96 One Last Chance Apr 7, 2016 $3.9928% (67%)20,000 .. 50,0001.12%00:01 (00:00)
97 Totally Unbalanced Jul 29, 2016 $2.9928% (67%)0 .. 20,0000%00:00 (00:00)
98 1931: Scheherazade at the Library of Pergamum Mar 26, 2015 $14.9928% (67%)0 .. 20,0000%00:00 (00:00)
99 Alter World May 29, 2015 $1.9928% (67%)100,000 .. 200,0000.21%02:11 (00:43)
100 Herding Dog Jan 15, 2016 $2.99N/A (N/A)0 .. 20,0000%00:00 (00:00)
101 Broken Dreams Feb 19, 2016 $1.9927% (66%)200,000 .. 500,0000.07%00:11 (00:03)
102 Lift It Jan 20, 2017 $4.9927% (66%)50,000 .. 100,0002.34%05:14 (06:29)
103 Highborn Feb 19, 2013 $1.9924% (64%)0 .. 20,0000%00:00 (00:00)
104 XCavalypse Jun 6, 2016 $5.99N/A (N/A)0 .. 20,0000%00:00 (00:00)
105 Marble Duel Nov 12, 2015 $4.9922% (62%)50,000 .. 100,0000%00:00 (00:00)
106 Power of Love Jul 21, 2015 $0.9922% (62%)20,000 .. 50,0000%00:00 (00:00)
107 Goodnight Butcher Dec 18, 2015 $1.99N/A (N/A)20,000 .. 50,0000%00:00 (00:00)
108 Winexy Jan 13, 2017 $0.9921% (61%)20,000 .. 50,0000%00:00 (00:00)
109 Football Blitz Jan 4, 2017 $3.99N/A (N/A)0 .. 20,0000%00:00 (00:00)
110 FBI MANIA Jan 31, 2017 $0.9919% (60%)100,000 .. 200,0000%00:00 (00:00)
111 Won't You Be My Laser? Sep 2, 2016 $0.99N/A (N/A)0 .. 20,0000%00:00 (00:00)
112 Star Chronicles: Delta Quadrant Jul 7, 2015 $0.9918% (59%)200,000 .. 500,0000.08%00:01 (00:00)
113 Wildlife Park 2 - Dino World Jul 17, 2014 $3.9917% (58%)20,000 .. 50,0000%00:00 (00:00)
114 Color Syndrome Aug 1, 2016 $0.9915% (56%)20,000 .. 50,0000%00:00 (00:00)
115 Bloop Reloaded Feb 6, 2015 $9.9915% (56%)100,000 .. 200,0000.2%00:57 (00:19)
116 Way of Gold and Steel Aug 17, 2015 $8.9915% (56%)20,000 .. 50,0000%00:00 (00:00)
117 Bunny & Piggy Nov 30, 2016 $0.9914% (54%)20,000 .. 50,0000.59%08:50 (02:56)
118 Backgammon Blitz Nov 12, 2015 $3.9914% (54%)0 .. 20,0000%00:00 (00:00)
119 Drizzlepath Mar 12, 2015 $2.9914% (54%)0 .. 20,0000%00:00 (00:00)
120 Dance Magic Feb 15, 2016 $9.99N/A (N/A)0 .. 20,0000%00:00 (00:00)
121 Reptilian Rebellion Aug 7, 2016 $0.9913% (53%)20,000 .. 50,0000%00:00 (00:00)
122 Sky to Fly: Soulless Leviathan Jul 22, 2016 $3.9913% (53%)0 .. 20,0000%00:00 (00:00)
123 Quantum Rush Champions Dec 4, 2014 $9.9912% (51%)20,000 .. 50,0000%00:00 (00:00)
124 Rage Runner May 16, 2014 $4.99N/A (N/A)0 .. 20,0000%00:00 (00:00)
125 King's Guard TD Jun 8, 2016 $2.9911% (50%)100,000 .. 200,0000.51%02:07 (01:24)
126 Autumn May 14, 2016 $2.9911% (50%)50,000 .. 100,0000%00:00 (00:00)
127 Racecraft Mar 4, 2016 Free10% (49%)0 .. 20,0000%00:00 (00:00)
128 Ninja Stealth 2 Jan 30, 2017 $0.9910% (48%)20,000 .. 50,0000.76%01:25 (00:28)
129 Astro Emporia Feb 2, 2015 $0.999% (47%)20,000 .. 50,0000%00:00 (00:00)
130 Melting Hearts: Our Love Will Grow 2 Apr 29, 2016 N/A8% (43%)20,000 .. 50,0000%00:00 (00:00)
131 iREC Jan 16, 2017 Free7% (42%)20,000 .. 50,0000%00:00 (00:00)
132 European Ship Simulator Nov 4, 2016 $19.996% (38%)20,000 .. 50,0000%00:00 (00:00)
133 Hide and Secret Treasure of the Ages Jun 17, 2016 $0.98N/A (N/A)0 .. 20,0000%00:00 (00:00)
134 Streets of Chaos Jan 28, 2015 $0.994% (34%)100,000 .. 200,0000%00:00 (00:00)
135 Space Hotel Jan 4, 2017 $1.994% (34%)0 .. 20,0000%00:00 (00:00)
136 Burst Mar 14, 2016 $1.99N/A (N/A)100,000 .. 200,0000%00:00 (00:00)
137 Industry Transporters Aug 31, 2015 $9.99N/A (N/A)0 .. 20,0000%00:00 (00:00)
138 Robot vs Birds Zombies Jul 23, 2015 $0.993% (31%)0 .. 20,0000%00:00 (00:00)
139 Labyrinth Simulator Sep 21, 2015 $4.993% (31%)0 .. 20,0000%00:00 (00:00)
140 Hyposphere May 5, 2016 $2.992% (25%)200,000 .. 500,0000%00:00 (00:00)
141 Cyber Team Manager Jan 18, 2016 $4.992% (20%)0 .. 20,0000%00:00 (00:00)
142 One way to exit Mar 12, 2016 $1.99N/A (N/A)200,000 .. 500,0000%00:00 (00:00)

Tags over time:

Access restricted.

This feature is only available to users with special access rights. Sorry.

If you want to proceed, you need to register or log in first and then back Steam Spy on Patreon. Look for Indie or Pro pledge.

Don't forget to use the same email as on Steam Spy!

Owners of this game also own:

Access restricted.

This feature is only available to users with special access rights. Sorry.

If you want to proceed, you need to register or log in first and then back Steam Spy on Patreon. Look for Indie or Pro pledge.

Don't forget to use the same email as on Steam Spy!

Playtime distribution:

Access restricted.

This feature is only available to users with special access rights. Sorry.

If you want to proceed, you need to register or log in first and then back Steam Spy on Patreon. Look for Indie or Pro pledge.

Don't forget to use the same email as on Steam Spy!

Playtime (2 weeks):

Access restricted.

This feature is only available to users with special access rights. Sorry.

If you want to proceed, you need to register or log in first and then back Steam Spy on Patreon. Look for Indie or Pro pledge.

Don't forget to use the same email as on Steam Spy!

User reviews:

Login required.

Please register or log in to see this information.